Regional Weather Roundup
Issued by NWS

Home | Current Version | Previous Version | Text Only | Print | Product List | Glossary Off
Versions: 1 2 3 4 5 6 7 8 9 10 11 12 13 14 15 16 17 18 19 20 21 22 23 24 25 26 27 28 29 30 31 32 33 34 35 36 37 38 39 40 41 42 43 44 45 46 47 48 49 50

000
ASUS45 KBOU 041507
RWRCO

WEATHER ROUNDUP FOR COLORADO
NATIONAL WEATHER SERVICE DENVER/BOULDER CO
900 AM MDT TUE AUG 04 2015

NOTE: "FAIR" INDICATES FEW OR NO CLOUDS BELOW 12000 FEET WITH NO
SIGNIFICANT WEATHER AND/OR OBSTRUCTIONS TO VISIBILITY.

COZ001>005-013-030-031-041600-
...NORTHWEST COLORADO...

CITY           SKY/WX    TMP DP  RH WIND       PRES   REMARKS
CRAIG          NOT AVBL
HAYDEN         SUNNY     57  48  72 SE3       30.25S
MEEKER         SUNNY     59  47  64 CALM      30.26R
MOUNT WERNER   NOT AVBL
STEAMBOAT SPGS   N/A     51  50  97 CALM      30.27R
WALDEN         CLOUDY    55  43  62 SW15G28   30.28R
$$

COZ006>008-011-041600-
...WEST CENTRAL VALLEYS...

CITY           SKY/WX    TMP DP  RH WIND       PRES   REMARKS
GRAND JUNCTION SUNNY     69  50  50 SE9       30.18R
MONTROSE       SUNNY     67  50  54 W3        30.25R
EAGLE          MOSUNNY   61  46  59 CALM      30.28S
RIFLE          SUNNY     64  51  62 CALM      30.22R
DELTA          RAIN      69  51  52 NE6       30.22R
NUCLA          SUNNY     64  50  59 CALM      30.29R
$$

COZ017>023-064>068-041600-
...SOUTHWEST COLORADO...

CITY           SKY/WX    TMP DP  RH WIND       PRES   REMARKS
DURANGO        SUNNY     68  45  43 CALM      30.29R
CORTEZ         SUNNY     65  50  58 CALM      30.24S
PAGOSA SPRINGS SUNNY     61  43  51 CALM      30.36S
TELLURIDE      SUNNY     58  44  60 E3        30.48R
WOLF CREEK PAS NOT AVBL
$$

COZ009-010-012-014-032>034-037-058>063-041600-
...CENTRAL COLORADO...

CITY           SKY/WX    TMP DP  RH WIND       PRES   REMARKS
ASPEN          SUNNY     60  43  53 CALM      30.33R
BUENA VISTA    SUNNY     61  42  49 E10       30.30F
COPPER MTN     SUNNY     52  34  50 W26G36    30.55R
BERTHOUD PASS  FAIR      41  32  70 NW41G59   30.49F
COTTONWOOD PAS SUNNY     59  37  44 N9G17     30.42R
GUNNISON       SUNNY     55  46  71 CALM      30.40S
KREMMLING      SUNNY     57  43  58 CALM      30.29F
LEADVILLE      SUNNY     57  35  43 N8        30.42S
MONARCH PASS   SUNNY     41  37  87 W41G48    30.64S
SALIDA         SUNNY     69  43  39 SW21G26   30.35S
SUNLIGHT       SUNNY     52  43  71 CALM      30.54R
WILKERSON PASS NOT AVBL
$$

COZ069>075-041600-
...SAN LUIS VALLEY/SANGRE DE CRISTO MOUNTAINS...

CITY           SKY/WX    TMP DP  RH WIND       PRES   REMARKS
ALAMOSA        SUNNY     60  48  64 W3        30.34R
LA VETA PASS   SUNNY     54  41  62 MISG      30.47R
SAGUACHE       SUNNY     61  45  55 W5        30.35S
$$

COZ035-036-038>040-041600-
...NORTHERN COLORADO FRONT RANGE...

CITY           SKY/WX    TMP DP  RH WIND       PRES   REMARKS
DENVER INTL AP MOSUNNY   72  46  39 E5        30.10R
DMNS CITY PARK   N/A     71  50  46 SE9G31    30.10R
AURORA         PTSUNNY   71  47  42 SW1       30.12R
FRONT RANGE AP PTSUNNY   72  46  40 NE5       30.12R
ERIE MUNI ARPT PTSUNNY   72  51  47 CALM      30.09R
BOULDER MUN AP PTSUNNY   66  54  63 CALM      30.10R
CENTENNIAL     PTSUNNY   73  44  35 NW3       30.12R
BROOMFIELD     PTSUNNY   72  54  53 N8        30.11R
FORT COLLINS   MOSUNNY   72  55  56 SE6       30.08S
LONGMONT       MOSUNNY   74  55  51 CALM      30.11R
$$

COZ041-046-047-076>085-087-088-041600-
...PIKES PEAK/PALMER DIVIDE AND SOUTHERN FOOTHILLS...

CITY           SKY/WX    TMP DP  RH WIND       PRES   REMARKS
COLO. SPRINGS  MOSUNNY   75  46  35 NW9       30.15R
A. F. ACADEMY  MOSUNNY   75  39  27 W12G21    30.17R
ELLICOTT       MOSUNNY  N/A N/A N/A CALM      30.13R
FALCON         MOSUNNY   72  42  33 W12       30.20R
FORT CARSON    SUNNY     72  49  44 NE2       30.12R
LIMON          SUNNY     77  45  32 N15G23    30.09R
MONUMENT HILL  MOSUNNY   72  41  33 W9        30.21R
TRINIDAD       SUNNY     74  54  49 W13       30.13R
$$

COZ042>045-048>051-090-091-041600-
...NORTHEAST COLORADO...

CITY           SKY/WX    TMP DP  RH WIND       PRES   REMARKS
GREELEY ARPT   SUNNY     70  54  56 CALM      30.07R
AKRON          SUNNY     71  54  54 N12       30.05R
BURLINGTON     SUNNY     74  57  55 SW10      30.02R
WRAY           MOSUNNY   76  59  56 NE5       30.01R
STERLING       MOSUNNY   72  55  56 E3        30.01S
HOLYOKE        MOSUNNY   73  64  73 E8        30.01F
FORT MORGAN    SUNNY     71  53  52 NE3       30.06S
$$

COZ086-089-092>099-041600-
...SOUTHEAST COLORADO...

CITY           SKY/WX    TMP DP  RH WIND       PRES   REMARKS
PUEBLO         SUNNY     77  54  44 W14       30.04S
LA JUNTA       SUNNY     72  60  66 VRB6      30.02S
LAMAR          SUNNY     71  59  65 SW3       29.99S
SPRINGFIELD      N/A     75  56  51 SW14G23   30.03F
$$



USA.gov is the U.S. government's official web portal to all federal, state and local government web resources and services.